STARLINK-35404

Last updated on Sun Dec 07 2025 00:02:05 GMT+0000 (Coordinated Universal Time)

1 66336U 25253T 25340.58335648 -.02017480 00000+0 -42761-1 0 9991 2 66336 43.0002 20.6781 0000907 282.2429 230.2907 15.47657763 6037

Satellite not in orbit